RH
79 81 84 76 71 69 65 66 72 85 80 72 69 58 59 58 65 86 80 77 78 78 76 70 64 61 60 56 52 51 52 54 57 59 59 58 58 57
92 93 77 73 70 73 67 69 75 78 74 73 68 65 58 44 57 78 68 68 79 79 79 77 72 65 63 57 52 52 51 51 56 60 60 59 59 58
89 83 77 71 75 76 76 74 74 78 80 74 72 66 65 64 59 65 72 73 80 84 81 79 78 78 73 67 59 57 54 54 58 60 60 61 60 59
77 72 70 60 75 79 81 78 79 77 76 69 72 75 68 62 65 66 58 53 62 65 78 76 71 76 73 71 70 69 64 62 62 61 62 63 64 61
71 71 71 68 69 74 74 79 80 66 82 88 84 77 75 73 67 65 66 73 64 66 72 73 77 75 74 73 74 73 72 73 74 68 67 67 67 66
69 65 60 60 64 67 67 73 71 81 83 86 85 82 79 75 77 79 82 85 82 57 59 62 66 72 75 74 75 75 74 74 74 74 75 76 76 70
60 54 54 62 74 74 62 69 74 82 87 89 80 90 90 85 81 84 88 92 95 94 93 76 66 62 64 57 60 73 72 71 71 77 77 77 77 72
58 60 60 63 58 71 78 82 87 87 89 92 85 88 84 92 88 87 93 98 99 93 92 78 70 69 65 66 60 66 69 69 66 67 69 72 73 74
64 66 63 54 77 76 78 79 80 82 89 92 92 90 89 90 90 95 97 94 95 84 68 74 77 73 70 50 64 68 66 70 72 73 72 74 75 79
79 76 74 74 72 73 76 79 80 81 81 75 88 91 89 86 89 88 86 90 89 82 72 91 82 81 81 82 70 68 66 68 68 69 73 75 77 80
71 74 73 76 74 76 82 87 87 85 70 74 76 79 87 88 91 98 97 89 96 93 85 91 83 87 84 83 76 64 67 69 72 72 70 70 72 76
82 76 79 80 84 86 90 91 91 81 80 82 82 85 84 86 91 95 92 97 96 96 84 88 84 90 96 84 78 76 79 67 65 64 66 70 70 77
85 86 86 81 81 79 79 87 90 86 90 90 91 85 83 78 76 84 96 94 90 87 79 81 90 88 95 93 90 76 83 84 86 86 73 71 70 73
81 83 86 74 71 76 86 88 90 93 88 85 88 86 88 83 83 87 95 94 82 76 73 83 93 93 96 98 95 86 93 93 95 92 92 80 79 80
80 75 73 75 79 87 83 79 85 93 93 92 93 93 82 80 89 93 92 97 96 84 74 83 90 89 94 93 93 90 96 94 94 94 97 90 87 87
82 82 84 87 89 90 86 80 89 88 89 94 93 88 88 92 94 90 98 98 98 98 93 87 85 84 94 89 86 86 88 96 90 93 87 95 95 96
87 90 89 87 91 86 84 81 83 84 87 86 90 89 87 86 96 93 93 97 97 91 91 95 88 84 94 84 90 90 89 90 89 93 94 95 97 94
88 95 96 97 97 89 93 90 84 86 83 83 87 86 90 90 94 98 98 98 91 88 96 97 90 96 98 88 80 89 95 92 89 96 95 98 94 96
97 97 97 97 98 94 91 89 90 88 84 86 87 89 91 88 90 93 96 98 92 90 96 97 94 97 95 96 84 80 91 96 97 98 96 98 98 93
85 96 97 97 96 90 90 90 89 93 92 91 89 92 91 93 91 92 93 97 96 97 96 93 90 86 91 91 93 93 82 95 98 97 98 98 94 85
92 93 97 97 98 97 100 99 99 99 96 98 91 92 92 91 90 90 93 92 93 96 96 96 81 81 85 88 89 91 90 74 83 94 97 98 98 97
96 95 96 99 97 99 99 100 96 98 93 92 93 95 93 91 91 92 93 94 91 93 94 92 76 71 84 77 86 91 92 93 92 90 90 86 97 98
98 99 100 99 98 98 99 100 100 100 97 94 95 91 91 92 88 92 93 93 92 92 97 90 78 81 76 70 84 92 87 89 95 98 98 92 91 88
Wind_Speed
3 3 2 4 4 3 3 4 4 3 3 4 3 6 5 5 6 6 8 17 19 16 17 18 17 16 14 15 15 13 15 18 18 19 20 21 23 23
1 6 6 3 5 4 3 3 3 4 7 4 5 6 6 6 6 7 8 16 19 18 19 17 17 17 17 17 15 13 15 16 17 18 19 19 20 21
8 7 8 6 4 4 4 4 4 4 6 4 4 5 4 6 6 5 5 4 4 14 19 18 14 17 18 17 15 16 15 15 15 15 16 17 19 20
7 6 7 4 6 5 4 6 5 5 5 13 5 4 5 4 4 2 2 3 5 10 17 17 19 16 17 16 16 17 16 17 16 16 16 16 16 17
7 6 6 4 3 3 3 4 4 4 4 4 5 4 4 3 3 3 5 4 4 12 15 13 14 16 15 17 18 18 17 17 17 16 17 18 18 18
5 3 2 2 4 5 5 5 5 4 4 4 4 5 5 5 3 3 4 3 4 5 7 7 7 12 16 18 19 18 18 18 18 17 18 18 18 20
3 2 1 3 5 5 2 5 5 4 4 5 7 3 3 2 5 3 4 3 3 3 3 5 4 3 3 3 5 12 15 13 11 14 18 19 17 15
2 4 5 6 7 9 9 7 2 2 4 3 6 7 9 5 3 4 3 2 3 3 3 4 2 2 3 3 9 13 11 11 10 13 14 14 14 14
1 3 4 4 6 4 5 5 5 6 5 4 8 8 10 5 5 7 7 5 5 4 4 4 3 4 4 5 11 13 10 9 11 12 15 14 14 15
5 4 3 5 5 6 5 5 5 5 5 5 7 9 9 10 10 11 11 7 3 3 4 3 3 4 3 4 13 13 10 7 7 8 10 14 15 16
5 5 5 5 8 13 8 8 9 7 8 13 16 18 17 16 11 6 7 6 3 4 4 3 4 3 3 3 5 8 4 5 9 10 12 14 16 18
4 4 7 7 11 12 8 9 12 12 11 11 10 11 11 12 13 10 9 8 4 2 5 4 3 3 3 3 1 1 2 6 11 13 15 15 16 6
2 3 3 10 12 16 16 9 11 13 14 11 10 8 9 9 8 8 10 9 8 7 4 4 3 3 3 2 2 2 2 5 4 5 13 16 17 14
3 4 4 15 18 17 13 13 15 9 8 10 10 9 8 9 8 7 9 10 9 11 5 6 3 4 3 1 3 2 3 4 3 4 4 9 14 14
3 8 15 17 16 9 9 13 9 5 7 8 10 9 7 9 7 6 9 12 10 10 6 6 4 4 4 4 4 3 2 3 3 3 3 4 5 5
5 6 8 10 8 3 3 5 4 5 7 7 8 9 11 6 7 8 6 5 6 5 6 7 8 7 5 5 5 6 5 3 3 3 6 3 3 5
4 3 4 5 2 3 4 5 5 6 7 8 8 10 10 11 9 6 8 5 5 6 6 4 7 8 7 9 6 6 7 5 6 4 3 5 3 4
2 3 3 2 2 5 4 5 5 7 8 9 8 9 10 11 11 7 5 7 8 8 6 4 4 2 1 5 12 7 4 5 5 4 2 1 4 3
1 2 1 2 2 3 4 5 6 6 9 7 8 9 10 10 12 12 7 6 8 8 5 4 4 4 5 4 3 14 6 3 2 3 3 3 4 5
2 1 1 2 2 4 4 5 5 5 5 6 7 7 9 9 10 11 11 10 8 5 6 5 5 6 5 5 4 4 7 3 3 3 2 2 4 11
2 2 1 2 2 3 3 3 3 3 4 3 6 7 7 9 9 10 10 14 14 6 7 7 7 7 3 4 3 3 4 10 10 5 2 1 2 3
3 2 3 2 3 3 3 2 4 3 5 5 6 5 6 7 9 10 10 12 10 11 6 3 4 4 3 4 4 4 3 4 5 9 11 9 4 2
2 1 2 2 2 2 2 2 3 3 4 6 5 7 8 8 9 9 9 10 10 13 4 4 5 3 4 5 4 3 3 4 2 1 3 12 16 18
Wind_Direction
161 149 163 212 207 214 202 176 180 251 264 265 251 254 259 268 253 205 207 214 216 212 206 216 223 234 237 248 263 281 295 298 293 291 293 293 294 294
263 228 223 225 223 220 201 219 200 201 274 203 239 236 251 265 254 213 220 224 219 217 212 216 227 241 242 243 253 263 278 290 292 289 289 290 291 290
222 214 222 211 217 224 211 215 222 193 252 267 227 241 247 248 267 271 257 227 222 211 209 219 236 243 233 234 240 250 266 276 280 285 290 292 292 291
220 229 228 234 234 234 228 239 234 237 240 270 246 243 235 259 258 268 292 244 223 225 220 220 231 232 225 227 229 241 251 259 266 271 278 282 289 292
224 223 223 212 246 248 240 237 235 245 240 239 263 222 227 207 232 236 227 246 247 251 252 238 240 234 228 230 234 239 245 250 255 257 261 268 273 279
212 185 204 239 250 264 266 266 263 252 246 250 262 262 229 232 198 223 282 230 261 270 277 261 216 225 228 237 239 244 250 259 264 251 251 254 257 263
96 64 11 313 295 267 250 267 267 263 264 266 276 266 260 248 223 221 228 252 264 227 266 278 255 260 275 271 256 250 256 255 253 246 251 253 256 258
47 355 345 327 318 323 353 17 303 303 291 268 282 271 273 231 222 227 220 213 270 241 221 258 153 226 245 254 264 269 261 241 245 249 253 250 253 259
60 322 326 356 6 9 354 346 322 301 254 252 284 278 279 251 235 254 227 215 213 227 180 245 201 238 246 261 266 273 254 244 254 266 255 248 250 251
45 27 358 347 348 340 320 312 295 285 278 276 265 284 274 274 246 242 242 231 227 231 164 222 200 241 245 251 272 271 262 265 272 278 262 259 256 255
22 21 10 342 324 334 331 316 310 294 283 277 275 275 277 277 258 269 245 220 239 224 205 186 230 240 230 247 260 263 345 303 304 302 293 291 275 264
358 335 327 327 334 344 329 312 302 294 293 290 287 279 277 274 268 254 243 226 220 315 209 175 190 164 310 247 231 263 274 285 300 301 297 296 291 277
344 327 320 319 317 315 308 295 280 290 291 284 280 275 274 277 273 258 231 229 233 238 203 145 189 180 180 256 259 238 257 273 277 287 292 293 290 279
341 314 306 316 315 316 314 306 319 322 323 308 290 284 278 274 264 249 230 227 230 233 189 178 208 167 176 229 260 244 260 259 237 257 266 283 290 282
334 323 318 315 312 311 338 345 337 338 328 331 317 276 270 282 261 256 250 225 217 227 212 195 195 199 184 232 256 250 281 278 242 255 254 271 271 271
324 318 301 292 286 310 340 347 337 337 336 334 331 311 317 274 263 258 246 224 224 219 227 214 210 210 226 235 240 261 255 232 276 258 268 268 262 250
310 310 300 309 313 342 344 345 348 344 342 340 329 334 322 329 274 238 237 212 219 235 235 212 209 206 218 238 241 242 261 263 266 261 265 279 259 269
325 299 292 319 345 352 350 353 350 346 343 331 340 328 322 324 338 277 220 209 224 235 227 186 194 181 262 249 222 244 242 249 266 263 248 248 286 275
43 320 342 4 311 344 348 346 337 342 331 343 328 333 323 331 329 334 278 219 225 229 217 177 187 205 229 236 266 219 226 215 227 269 225 211 255 273
347 17 1 337 325 343 338 331 331 327 333 330 331 330 325 338 333 332 333 291 225 190 211 197 195 213 206 215 215 256 223 199 190 244 264 269 253 276
8 16 330 316 324 325 320 316 307 308 313 317 325 322 336 336 328 330 325 314 327 219 211 200 208 202 150 88 39 296 283 252 232 206 217 106 291 299
5 343 322 353 347 321 312 319 323 317 333 321 315 326 334 332 325 323 321 328 320 291 205 164 153 155 156 174 209 232 275 302 284 236 212 195 170 252
298 320 332 328 306 296 310 322 302 293 301 308 336 333 327 323 319 320 323 312 306 322 198 176 172 166 206 205 196 228 244 268 234 273 268 227 228 238